This is the latest recevied weather packets stored in our database for station/object SA7BGG-5. If no packets are shown the sender has not sent any weather packets the latest 10 day(s).
| Time | Temp. | Humidity | Pressure | Rain* | Wind** | Luminosity | Snow |
|---|---|---|---|---|---|---|---|
| 1778142301 | 13.33° C | 52% | 1020 hPa | - | - | - | - |
| 1778142001 | 13.33° C | 52% | 1020 hPa | - | - | - | - |
| 1778141701 | 12.22° C | 55% | 1020 hPa | - | - | - | - |
| 1778141401 | 12.22° C | 55% | 1020 hPa | - | - | - | - |
| 1778141100 | 11.67° C | 57% | 1020 hPa | - | - | - | - |
| 1778140805 | 11.67° C | 57% | 1020 hPa | - | - | - | - |
| 1778140505 | 10.56° C | 57% | 1020 hPa | - | - | - | - |
| 1778140204 | 10.56° C | 57% | 1020 hPa | - | - | - | - |
| 1778139904 | 8.89° C | 60% | 1020 hPa | - | - | - | - |
| 1778139603 | 8.89° C | 60% | 1020 hPa | - | - | - | - |
| 1778139303 | 8.89° C | 63% | 1020 hPa | - | - | - | - |
| 1778139003 | 8.89° C | 63% | 1020 hPa | - | - | - | - |
| 1778138703 | 8.33° C | 64% | 1020 hPa | - | - | - | - |
| 1778138402 | 8.33° C | 64% | 1020 hPa | - | - | - | - |
| 1778138102 | 8.33° C | 65% | 1020 hPa | - | - | - | - |
| 1778137802 | 8.33° C | 65% | 1020 hPa | - | - | - | - |
| 1778137501 | 7.78° C | 71% | 1020 hPa | - | - | - | - |
| 1778137201 | 7.78° C | 71% | 1020 hPa | - | - | - | - |
| 1778136901 | 7.22° C | 75% | 1020 hPa | - | - | - | - |
| 1778136601 | 7.22° C | 75% | 1020 hPa | - | - | - | - |
| 1778136300 | 6.67° C | 80% | 1020 hPa | - | - | - | - |
| 1778136005 | 6.67° C | 80% | 1020 hPa | - | - | - | - |
| 1778135704 | 6.67° C | 85% | 1020 hPa | - | - | - | - |
| 1778135404 | 6.67° C | 85% | 1020 hPa | - | - | - | - |
| 1778135104 | 6.11° C | 87% | 1020 hPa | - | - | - | - |
* Rain since midnight (hover to see other rain measurements)
** Current wind speed in m/s (hover to see current wind gust speed)